Temp
59 58 56 56 54 53 49 49 49 49 50 50 50 50 49 48 48 48 47 48 48 51
54 53 48 47 48 47 47 49 47 46 46 47 47 47 47 46 45 45 45 45 45 46
47 47 46 46 44 44 44 45 45 44 44 44 44 44 44 43 44 43 42 44 43 43
44 44 44 43 42 43 43 43 43 43 43 42 42 42 41 41 42 41 40 41 41 42
44 42 42 41 41 41 41 41 41 41 41 41 41 40 40 40 40 39 39 40 40 40
40 40 40 39 40 39 39 39 39 39 39 39 39 39 39 40 38 37 37 38 38 38
38 38 38 38 37 37 37 37 37 37 37 37 37 37 38 38 36 36 37 36 36 36
36 36 36 35 35 34 34 36 36 35 34 35 36 39 37 35 34 33 33 33 33 34
34 33 33 33 33 33 33 33 32 32 31 31 36 39 39 37 33 32 31 31 32 32
33 33 32 32 33 32 32 31 31 30 30 30 30 37 38 38 33 32 31 31 31 32
32 31 31 31 30 30 30 29 29 29 29 28 30 36 37 37 32 30 30 32 33 34
30 27 26 24 25 28 26 25 24 27 24 22 26 34 36 36 30 31 31 32 34 34
28 23 22 25 23 25 23 26 26 27 24 23 23 31 35 36 30 27 31 31 34 35
24 22 23 22 21 20 17 21 16 22 23 20 23 24 35 37 32 29 30 33 33 34
MSLP
1023.04 1023.78 1024.07 1024.38 1025.04 1025.50 1025.69 1025.94 1026.14 1025.97 1026.16 1026.27 1026.11 1026.06 1026.02 1026.03 1025.94 1025.81 1025.84 1025.78 1025.79 1025.63
1023.79 1024.48 1024.73 1025.21 1025.51 1026.08 1026.23 1026.24 1026.35 1026.54 1026.56 1026.66 1026.62 1026.54 1026.45 1026.49 1026.49 1026.31 1026.30 1026.13 1025.91 1025.68
1024.33 1025.11 1025.59 1025.79 1026.17 1026.68 1026.86 1026.89 1026.90 1026.96 1026.95 1026.92 1026.91 1026.90 1026.87 1026.75 1026.60 1026.58 1026.45 1026.38 1026.15 1025.72
1025.20 1025.69 1026.23 1026.42 1026.72 1026.94 1027.20 1027.25 1027.29 1027.33 1027.31 1027.29 1027.22 1027.11 1027.10 1027.10 1026.94 1026.79 1026.55 1026.20 1025.95 1025.64
1025.83 1026.17 1026.56 1026.84 1026.98 1027.10 1027.37 1027.51 1027.62 1027.59 1027.49 1027.52 1027.43 1027.35 1027.31 1027.20 1027.05 1026.90 1026.65 1026.36 1026.03 1025.65
1026.31 1026.82 1027.15 1027.35 1027.37 1027.50 1027.59 1027.79 1027.84 1027.85 1027.89 1027.82 1027.59 1027.44 1027.21 1027.16 1027.03 1026.86 1026.67 1026.40 1026.16 1025.74
1026.86 1027.08 1027.41 1027.65 1027.69 1027.62 1027.76 1027.96 1027.97 1027.99 1028.09 1027.95 1027.68 1027.52 1027.23 1027.17 1026.96 1026.75 1026.65 1026.41 1026.01 1025.59
1027.24 1027.36 1027.61 1027.82 1028.06 1028.01 1028.13 1028.16 1028.24 1028.36 1028.39 1028.11 1027.82 1027.40 1027.19 1027.03 1026.73 1026.52 1026.27 1026.06 1025.71 1025.27
1027.36 1027.57 1027.74 1028.25 1028.27 1028.33 1028.34 1028.22 1028.39 1028.53 1028.34 1027.98 1027.61 1027.27 1026.86 1026.60 1026.62 1026.28 1025.90 1025.44 1025.14 1024.92
1027.45 1027.79 1027.81 1028.10 1028.29 1028.41 1028.56 1028.48 1028.46 1028.49 1028.40 1028.09 1027.71 1026.89 1026.32 1026.12 1026.13 1025.99 1025.63 1025.18 1024.60 1024.15
1027.69 1027.94 1028.12 1028.44 1028.72 1028.77 1028.82 1028.72 1028.62 1028.50 1028.41 1028.08 1027.56 1026.78 1026.22 1025.70 1025.64 1025.28 1024.97 1024.68 1024.22 1023.61
1027.68 1028.10 1028.40 1028.81 1028.89 1028.71 1028.61 1028.57 1028.52 1028.37 1028.09 1027.86 1027.18 1026.51 1025.88 1025.52 1025.13 1024.83 1024.50 1024.15 1023.78 1023.46
1027.56 1027.88 1028.40 1028.66 1028.66 1028.83 1028.71 1028.48 1028.20 1027.81 1027.81 1027.54 1027.05 1026.40 1025.81 1025.30 1024.76 1024.36 1023.87 1023.47 1022.97 1022.77
1027.79 1028.15 1028.53 1028.79 1028.89 1028.75 1028.47 1028.22 1027.95 1027.84 1027.41 1027.05 1026.62 1026.22 1025.44 1024.83 1024.39 1024.14 1023.54 1022.87 1022.45 1022.16
Wind_Speed
10 5 5 7 6 5 4 4 6 6 6 6 6 6 6 4 4 5 4 6 5 5
10 9 8 7 7 5 5 4 6 6 6 6 7 6 6 4 5 5 4 5 5 4
9 8 7 7 8 7 6 6 6 6 6 6 6 6 6 5 4 6 4 4 6 5
9 8 7 8 6 6 6 6 6 6 6 6 6 6 5 6 6 6 6 6 5 8
9 8 8 7 6 6 6 6 6 6 6 6 6 6 6 6 5 6 7 8 8 10
8 8 7 6 6 6 6 6 6 6 6 5 5 6 5 4 5 5 6 7 8 11
7 7 6 5 6 6 5 5 5 5 6 6 6 6 5 6 6 7 8 9 9 10
6 6 6 6 5 5 5 5 5 5 5 5 5 5 8 7 7 7 8 8 9 9
6 6 6 5 4 4 4 5 4 5 6 7 6 14 15 11 6 6 8 10 9 8
6 6 5 5 5 6 5 4 5 5 5 6 6 13 15 15 6 7 8 9 10 12
6 5 5 5 4 4 2 4 4 5 5 6 6 15 17 15 6 5 6 7 11 14
5 4 3 3 2 3 2 2 3 4 4 5 8 15 17 15 5 6 7 6 10 11
4 4 2 1 2 2 2 4 3 7 4 6 8 14 16 14 5 6 7 7 9 13
3 2 1 0 2 3 3 3 3 6 5 6 6 8 15 17 8 6 9 9 10 9
Wind_Direction
82 89 81 84 81 71 72 59 38 48 42 27 26 21 18 16 357 355 344 336 321 308
82 83 89 79 77 75 66 63 58 49 47 32 29 24 13 18 360 3 352 332 326 312
95 88 82 79 78 72 65 58 53 46 43 37 29 21 18 11 359 3 342 336 329 317
91 87 81 83 79 77 69 54 51 42 36 30 23 14 11 4 358 349 329 320 312 303
95 89 87 81 76 72 71 56 50 39 36 21 13 4 358 340 337 330 323 314 312 305
93 91 85 80 75 65 66 56 41 36 24 355 347 339 333 326 317 311 305 303 307 306
94 94 89 81 73 69 59 54 36 22 358 337 335 320 319 323 316 317 314 309 305 302
104 95 88 73 68 68 53 38 26 2 336 330 333 328 331 322 306 299 302 297 291 291
105 97 91 77 59 51 35 26 21 2 344 334 334 325 324 320 299 294 294 301 306 301
116 111 86 68 44 30 12 359 345 333 318 301 290 313 319 320 309 303 303 308 317 325
105 88 70 54 36 5 328 340 323 305 291 294 303 317 320 318 293 284 290 302 318 320
110 100 74 45 342 313 296 286 257 261 286 286 296 309 317 323 306 295 304 304 317 316
116 116 88 331 317 243 247 274 293 312 284 263 279 306 314 319 289 294 303 298 308 314
95 107 130 309 274 291 305 328 312 294 297 273 274 289 307 321 312 298 307 304 309 310